Location: Cassagne
(43.1218°N, 0.9901°E)
Time: 04:32:27
(UTC+00:00)

Cosmos 1633 Rocket - Pass Details

Date: 17 February 2020
Orbit: 608 x 622 km, 82.5° (Epoch: 29 March)

Event Time Altitude Azimuth Distance (km) Brightness Sun altitude
Rises 05:44:26 0° 358° (N) 2,885 6.4 -12.9°
Reaches altitude 10° 05:46:46 10° 6° (N) 1,978 5.7 -12.5°
Maximum altitude 05:50:55 41° 77° (ENE) 892 4.5 -11.7°
Drops below altitude 10° 05:55:03 10° 148° (SSE) 1,971 6.2 -11.0°
Sets 05:57:22 0° 156° (SSE) 2,874 6.9 -10.6°
